NE1CU Weather Reports


Display with metric or nautical units.
time (UTC)temp
F
wind
direction
speed
MPH
gust
MPH
rain 1hr
in
rain 24hr
in
rain mn
in
humidity
%
barometer
mb
20260510225223 62 40 0.0 0.0 0.00 0.00 0.00 80 1012.9
20260510224719 62 53 0.0 0.0 0.00 0.00 0.00 80 1012.9
20260510224216 62 53 1.0 1.0 0.00 0.00 0.00 80 1012.8
20260510223714 62 54 0.0 0.0 0.00 0.00 0.00 81 1013.0
20260510223210 61 53 0.0 0.0 0.00 0.00 0.00 81 1012.7
20260510222707 61 54 0.0 0.0 0.00 0.00 0.00 82 1012.9
20260510222205 61 54 0.0 0.0 0.00 0.00 0.00 82 1013.2
20260510221659 60 14 0.0 0.0 0.00 0.00 0.00 83 1012.9
20260510221157 60 49 0.0 0.0 0.00 0.00 0.00 83 1013.0
20260510220654 60 219 1.0 1.0 0.00 0.00 0.00 84 1012.7
20260510220148 60 277 1.0 1.0 0.00 0.00 0.00 83 1012.8
20260510215646 60 281 0.0 0.0 0.00 0.00 0.00 83 1012.9
20260510215144 60 137 1.0 1.0 0.00 0.00 0.00 82 1012.8
20260510214641 61 142 1.0 1.0 0.00 0.00 0.00 81 1012.6
20260510214137 64 159 2.0 2.0 0.00 0.00 0.00 77 1012.8
20260510213634 66 174 2.0 3.0 0.00 0.00 0.00 74 1012.5
20260510213131 66 121 1.0 1.0 0.00 0.00 0.00 74 1012.4
20260510212627 67 274 0.0 0.0 0.00 0.00 0.00 74 1012.3
20260510212125 67 284 1.0 1.0 0.00 0.00 0.00 73 1012.4
20260510211621 66 25 1.0 1.0 0.00 0.00 0.00 75 1012.5
20260510211121 66 16 1.0 1.0 0.00 0.00 0.00 74 1012.5
20260510210618 66 118 0.0 0.0 0.00 0.00 0.00 74 1012.4
20260510210113 66 124 0.0 0.0 0.00 0.00 0.00 73 1012.5
20260510205612 66 124 1.0 1.0 0.00 0.00 0.00 74 1012.5
20260510205108 66 135 1.0 1.0 0.00 0.00 0.00 75 1012.4
20260510204604 66 192 2.0 2.0 0.00 0.00 0.00 74 1012.4
20260510204102 66 152 1.0 1.0 0.00 0.00 0.00 74 1012.3
20260510203558 66 137 1.0 1.0 0.00 0.00 0.00 75 1012.4
20260510203055 65 111 1.0 1.0 0.00 0.00 0.00 75 1012.3
20260510202554 65 139 2.0 2.0 0.00 0.00 0.00 75 1012.2
20260510202050 64 205 1.0 1.0 0.00 0.00 0.00 78 1012.3
20260510201548 63 210 2.0 2.0 0.00 0.00 0.00 80 1012.4
20260510201045 63 133 1.0 2.0 0.00 0.00 0.00 78 1012.4
20260510200540 63 218 1.0 2.0 0.00 0.00 0.00 79 1012.4
20260510200038 62 116 1.0 1.0 0.00 0.00 0.00 80 1012.5
20260510195536 62 154 1.0 2.0 0.00 0.00 0.00 79 1012.5
20260510195032 62 148 1.0 1.0 0.00 0.00 0.00 80 1012.7
20260510194527 63 173 1.0 1.0 0.00 0.00 0.00 79 1012.7
20260510194024 64 234 3.0 3.0 0.00 0.00 0.00 76 1012.6
20260510193518 65 224 2.0 2.0 0.00 0.00 0.00 73 1012.7
20260510193015 65 89 1.0 1.0 0.00 0.00 0.00 74 1012.6
20260510192509 65 227 2.0 2.0 0.00 0.00 0.00 72 1012.7
20260510192005 66 140 2.0 3.0 0.00 0.00 0.00 71 1012.8
20260510191502 65 251 2.0 2.0 0.00 0.00 0.00 71 1012.8
20260510190959 64 122 1.0 1.0 0.00 0.00 0.00 72 1013.0
20260510190456 63 180 0.0 1.0 0.00 0.00 0.00 76 1012.8
20260510185953 63 129 2.0 2.0 0.00 0.00 0.00 75 1012.9
20260510185450 64 230 2.0 3.0 0.00 0.00 0.00 75 1012.9
20260510184947 64 120 2.0 3.0 0.00 0.00 0.00 76 1012.9
20260510184445 64 224 3.0 4.0 0.00 0.00 0.00 74 1012.9
20260510183944 64 175 1.0 0.0 0.00 0.00 0.00 75 1013.0
20260510183441 66 136 2.0 2.0 0.00 0.00 0.00 72 1012.8
20260510182941 66 129 1.0 1.0 0.00 0.00 0.00 72 1012.9
20260510182438 68 162 1.0 1.0 0.00 0.00 0.00 71 1012.9
20260510181933 68 345 1.0 1.0 0.00 0.00 0.00 73 1012.9
20260510181432 67 196 2.0 2.0 0.00 0.00 0.00 72 1012.7
20260510180927 67 225 3.0 3.0 0.00 0.00 0.00 71 1012.8
20260510180425 66 236 3.0 3.0 0.00 0.00 0.00 72 1013.2
20260510175921 66 274 2.0 2.0 0.00 0.00 0.00 72 1013.0
20260510175417 66 167 3.0 3.0 0.00 0.00 0.00 74 1013.2
20260510174913 64 228 1.0 1.0 0.00 0.00 0.00 79 1013.2
20260510174412 64 157 1.0 1.0 0.00 0.00 0.00 76 1013.1
20260510173908 63 151 5.0 6.0 0.00 0.00 0.00 77 1013.2
20260510173403 64 237 2.0 3.0 0.00 0.00 0.00 77 1013.2
20260510172900 63 220 3.0 4.0 0.00 0.00 0.00 78 1013.1
20260510172356 63 161 1.0 1.0 0.00 0.00 0.00 80 1013.2
20260510171852 63 199 2.0 2.0 0.00 0.00 0.00 79 1013.4
20260510171350 63 155 2.0 2.0 0.00 0.00 0.00 80 1013.1
20260510170847 62 259 2.0 2.0 0.00 0.00 0.00 82 1012.9
20260510170343 62 135 3.0 3.0 0.00 0.00 0.00 81 1013.1
20260510165838 62 307 2.0 2.0 0.00 0.00 0.00 82 1013.2
20260510165335 61 54 1.0 1.0 0.00 0.00 0.00 81 1013.3
20260510164832 61 103 2.0 2.0 0.00 0.00 0.00 82 1013.4
20260510164329 62 183 0.0 1.0 0.00 0.00 0.00 81 1013.5
20260510163829 61 249 0.0 0.0 0.00 0.00 0.00 82 1013.5
20260510163326 61 248 2.0 2.0 0.00 0.00 0.00 83 1013.3
20260510162826 61 210 2.0 2.0 0.00 0.00 0.00 82 1013.4
20260510162323 61 224 1.0 1.0 0.00 0.00 0.00 82 1013.4
20260510161819 61 119 1.0 1.0 0.00 0.00 0.00 83 1013.3
20260510161315 61 231 2.0 2.0 0.00 0.00 0.00 83 1013.3
20260510160812 61 182 2.0 2.0 0.00 0.00 0.00 83 1013.4
20260510160309 61 212 2.0 2.0 0.00 0.00 0.00 81 1013.2
20260510155808 61 96 1.0 1.0 0.00 0.00 0.00 83 1013.2
20260510155306 61 134 2.0 2.0 0.00 0.00 0.00 82 1013.2
20260510154801 61 176 3.0 3.0 0.00 0.00 0.00 81 1013.3
20260510154257 61 26 1.0 1.0 0.00 0.00 0.00 82 1013.4
20260510153752 61 248 1.0 1.0 0.00 0.00 0.00 82 1013.8
20260510153248 61 147 1.0 1.0 0.00 0.00 0.00 82 1013.6
20260510152745 60 157 2.0 2.0 0.00 0.00 0.00 83 1013.8
20260510152242 60 240 2.0 3.0 0.00 0.00 0.00 80 1013.6
20260510151738 60 164 2.0 3.0 0.00 0.00 0.00 83 1013.8
20260510151237 60 171 3.0 3.0 0.00 0.00 0.00 81 1013.7
20260510150732 60 215 1.0 1.0 0.00 0.00 0.00 83 1013.7
20260510150228 59 190 1.0 1.0 0.00 0.00 0.00 83 1014.0
20260510145724 59 109 1.0 1.0 0.00 0.00 0.00 82 1013.7
20260510145220 59 312 1.0 1.0 0.00 0.00 0.00 83 1013.5
20260510144716 59 214 1.0 1.0 0.00 0.00 0.00 83 1013.5
20260510144214 58 19 2.0 2.0 0.00 0.00 0.00 84 1013.7
20260510143708 57 98 0.0 1.0 0.00 0.00 0.00 86 1013.4
20260510143205 56 41 0.0 0.0 0.00 0.00 0.00 87 1013.4
20260510142701 56 107 1.0 1.0 0.00 0.00 0.00 88 1013.4
20260510142158 56 93 1.0 1.0 0.00 0.00 0.00 89 1013.3
20260510141655 56 26 0.0 1.0 0.00 0.00 0.00 88 1013.2
20260510141154 55 331 1.0 1.0 0.00 0.00 0.00 89 1013.4
20260510140649 55 56 1.0 1.0 0.00 0.00 0.00 90 1013.4
20260510140149 55 61 1.0 1.0 0.00 0.00 0.00 89 1013.4
20260510135644 55 9 0.0 1.0 0.00 0.00 0.00 90 1013.4
20260510135140 55 8 0.0 0.0 0.00 0.00 0.00 90 1013.4
20260510134637 55 83 1.0 1.0 0.00 0.00 0.00 91 1013.3
20260510134135 54 12 1.0 1.0 0.00 0.00 0.00 92 1013.3
20260510133631 54 332 2.0 2.0 0.00 0.00 0.00 91 1013.2
20260510133126 55 33 1.0 1.0 0.00 0.00 0.00 92 1013.2
20260510132623 54 53 0.0 0.0 0.00 0.00 0.00 91 1013.2
20260510132120 55 22 1.0 1.0 0.00 0.00 0.00 91 1013.4
20260510131618 55 102 0.0 0.0 0.00 0.00 0.00 90 1013.3
20260510131115 55 102 1.0 1.0 0.00 0.00 0.00 90 1013.2
20260510130611 55 20 0.0 0.0 0.00 0.00 0.00 90 1013.2
20260510130109 55 60 0.0 0.0 0.00 0.00 0.00 91 1013.2
20260510125605 55 18 1.0 1.0 0.00 0.00 0.00 90 1013.0
20260510125101 55 27 1.0 1.0 0.00 0.00 0.00 91 1013.0
20260510124558 55 73 0.0 0.0 0.00 0.00 0.00 91 1013.0
20260510124055 55 74 0.0 0.0 0.00 0.00 0.00 91 1012.9
20260510123550 54 31 1.0 1.0 0.00 0.00 0.00 91 1012.9
20260510123047 55 23 2.0 2.0 0.00 0.00 0.00 92 1012.8
20260510122542 55 85 0.0 0.0 0.00 0.00 0.00 92 1012.6
20260510122039 55 80 0.0 0.0 0.00 0.00 0.00 92 1012.7
20260510121536 55 74 0.0 0.0 0.00 0.00 0.00 92 1012.4
20260510121033 55 48 1.0 1.0 0.00 0.00 0.00 92 1012.5
20260510120531 55 87 1.0 1.0 0.00 0.00 0.00 93 1012.5
20260510120026 55 94 1.0 1.0 0.00 0.00 0.00 93 1012.6
20260510115523 54 73 0.0 0.0 0.00 0.00 0.00 93 1012.6
20260510115020 54 123 0.0 0.0 0.00 0.00 0.00 94 1012.3
20260510114516 54 125 0.0 1.0 0.00 0.00 0.00 94 1012.3
20260510114012 54 107 1.0 1.0 0.00 0.00 0.00 94 1012.3
20260510113508 54 85 1.0 1.0 0.00 0.00 0.00 94 1012.1
20260510113006 54 81 0.0 0.0 0.00 0.00 0.00 95 1012.0
20260510112502 54 77 1.0 1.0 0.00 0.00 0.00 95 1012.1
20260510111958 54 62 0.0 0.0 0.00 0.00 0.00 95 1012.2
20260510111455 54 34 0.0 0.0 0.00 0.00 0.00 95 1012.4
20260510110951 54 67 0.0 0.0 0.00 0.00 0.00 96 1012.2
20260510110447 54 68 0.0 0.0 0.00 0.00 0.00 96 1012.2
20260510105943 54 321 0.0 0.0 0.00 0.00 0.00 96 1012.3
20260510105438 54 322 0.0 0.0 0.00 0.00 0.00 96 1012.0
20260510104934 53 8 0.0 0.0 0.00 0.00 0.00 96 1012.1
20260510104431 53 7 0.0 0.0 0.00 0.00 0.00 96 1012.0
20260510103927 53 8 0.0 0.0 0.00 0.00 0.00 96 1012.1
20260510103425 53 8 0.0 0.0 0.00 0.00 0.00 96 1012.0
20260510102920 53 8 0.0 0.0 0.00 0.00 0.00 96 1012.1
20260510102416 53 8 0.0 0.0 0.00 0.00 0.00 96 1012.2
20260510101913 52 8 0.0 0.0 0.00 0.00 0.00 96 1011.9
20260510101411 52 8 0.0 0.0 0.00 0.00 0.00 96 1012.1
20260510100908 53 8 0.0 0.0 0.00 0.00 0.00 96 1012.1
20260510100405 53 8 0.0 0.0 0.00 0.00 0.00 96 1012.0
20260510095902 53 8 0.0 0.0 0.00 0.00 0.00 96 1012.0
20260510095356 53 8 0.0 0.0 0.00 0.00 0.00 96 1012.0
20260510094856 53 8 0.0 0.0 0.00 0.00 0.00 96 1012.2
20260510094351 53 8 0.0 0.0 0.00 0.00 0.00 96 1012.1
20260510093848 53 8 0.0 0.0 0.00 0.00 0.00 96 1012.2
20260510093344 53 8 0.0 0.0 0.00 0.00 0.00 96 1012.4
20260510092840 53 8 0.0 0.0 0.00 0.00 0.00 96 1012.3
20260510092336 53 8 0.0 0.0 0.00 0.00 0.00 96 1012.3
20260510091832 53 8 0.0 0.0 0.00 0.00 0.00 96 1012.3
20260510091329 53 17 1.0 1.0 0.00 0.00 0.00 96 1012.3
20260510090826 53 37 0.0 0.0 0.00 0.00 0.00 96 1012.3
20260510090323 53 40 0.0 0.0 0.00 0.00 0.00 96 1012.3
20260510085818 53 40 0.0 0.0 0.00 0.00 0.00 96 1012.5
20260510085318 53 24 1.0 1.0 0.00 0.00 0.00 96 1012.4
20260510084814 53 38 0.0 1.0 0.00 0.00 0.00 96 1012.4
20260510084311 53 338 0.0 0.0 0.00 0.00 0.00 96 1012.5
20260510083808 53 42 1.0 1.0 0.00 0.00 0.00 96 1012.3
20260510083305 53 27 0.0 0.0 0.00 0.00 0.00 96 1012.2
20260510082800 53 72 0.0 0.0 0.00 0.00 0.00 96 1011.8
20260510082258 53 73 0.0 0.0 0.00 0.00 0.00 96 1011.7
20260510081756 53 73 0.0 0.0 0.00 0.00 0.00 96 1011.7
20260510081252 53 73 0.0 0.0 0.00 0.00 0.00 96 1011.6
20260510080748 53 73 0.0 0.0 0.00 0.00 0.00 96 1011.6
20260510080243 53 72 0.0 0.0 0.00 0.00 0.00 96 1011.3
20260510075741 53 73 0.0 0.0 0.00 0.00 0.00 96 1011.2
20260510075238 53 73 0.0 0.0 0.00 0.00 0.00 96 1011.4
20260510074735 53 73 0.0 0.0 0.00 0.00 0.00 96 1011.5
20260510074232 53 73 0.0 0.0 0.00 0.00 0.00 96 1011.5
20260510073728 53 73 0.0 0.0 0.00 0.00 0.00 96 1011.5
20260510073224 53 73 0.0 0.0 0.00 0.00 0.00 96 1011.5
20260510072720 53 73 0.0 0.0 0.00 0.00 0.00 96 1011.5
20260510072217 53 73 0.0 0.0 0.00 0.00 0.00 96 1011.6
20260510071713 53 73 0.0 0.0 0.00 0.00 0.00 96 1011.6
20260510071210 53 73 0.0 0.0 0.00 0.00 0.00 96 1011.4
20260510070708 53 73 0.0 0.0 0.00 0.00 0.00 96 1011.5
20260510070205 53 73 0.0 0.0 0.00 0.00 0.00 96 1011.5
20260510065700 53 73 0.0 0.0 0.00 0.00 0.00 96 1011.5
20260510065156 53 73 0.0 0.0 0.00 0.00 0.00 96 1011.5
20260510064653 53 73 0.0 0.0 0.00 0.00 0.00 96 1011.3
20260510064150 53 73 0.0 0.0 0.00 0.00 0.00 96 1011.4
20260510063647 53 73 0.0 0.0 0.00 0.00 0.00 96 1011.4
20260510063144 53 73 0.0 0.0 0.00 0.00 0.00 96 1011.4
20260510062640 53 73 0.0 0.0 0.00 0.00 0.00 96 1011.3
20260510062136 53 73 0.0 0.0 0.00 0.00 0.00 96 1011.1
20260510061631 53 73 0.0 0.0 0.00 0.00 0.00 96 1011.0
20260510061129 53 73 0.0 0.0 0.00 0.00 0.00 96 1011.0
20260510060625 53 73 0.0 0.0 0.00 0.00 0.00 96 1011.3
20260510060122 53 73 0.0 0.0 0.00 0.00 0.00 96 1011.1
20260510055618 53 73 0.0 0.0 0.00 0.00 0.00 96 1011.1
20260510055116 53 73 0.0 0.0 0.00 0.00 0.00 96 1011.2
20260510054611 53 73 0.0 0.0 0.00 0.00 0.00 96 1011.3
20260510054107 53 73 0.0 0.0 0.00 0.00 0.00 96 1011.3
20260510053606 53 73 0.0 0.0 0.00 0.00 0.00 96 1011.4
20260510053103 53 72 0.0 0.0 0.00 0.00 0.00 96 1011.4
20260510052559 53 72 0.0 0.0 0.00 0.00 0.00 96 1011.4
20260510052056 53 72 0.0 0.0 0.00 0.00 0.00 96 1011.5
20260510051551 54 72 0.0 0.0 0.00 0.00 0.00 96 1011.6
20260510051049 54 72 0.0 0.0 0.00 0.00 0.00 96 1011.2
20260510050546 54 72 0.0 0.0 0.00 0.00 0.00 96 1011.3
20260510050043 54 72 0.0 0.0 0.00 0.00 0.00 96 1011.4
20260510045540 54 72 0.0 0.0 0.00 0.00 0.00 96 1011.5
20260510045035 53 72 0.0 0.0 0.00 0.00 0.00 96 1011.5
20260510044532 54 72 0.0 0.0 0.00 0.00 0.00 96 1011.5
20260510044030 53 72 0.0 0.0 0.00 0.00 0.00 96 1011.5
20260510043525 53 72 0.0 0.0 0.00 0.00 0.00 96 1011.6
20260510043020 53 72 0.0 0.0 0.00 0.00 0.00 96 1011.5
20260510042515 53 72 0.0 0.0 0.00 0.00 0.00 96 1011.4
20260510042010 53 72 0.0 0.0 0.00 0.00 0.00 96 1011.2
20260510041508 53 72 0.0 0.0 0.00 0.00 0.00 96 1011.2
20260510041006 53 73 0.0 0.0 0.00 0.00 0.00 96 1011.2
20260510040501 53 73 0.0 0.0 0.00 0.00 0.00 96 1011.2
20260510035957 53 73 0.0 0.0 0.00 0.41 0.41 96 1011.2
20260510035454 53 73 0.0 0.0 0.00 0.41 0.41 96 1011.1
20260510034953 53 73 0.0 0.0 0.00 0.41 0.41 96 1011.1
20260510034453 53 72 0.0 0.0 0.00 0.41 0.41 96 1011.1
20260510033948 53 73 0.0 0.0 0.00 0.41 0.41 96 1011.1
20260510033444 53 73 0.0 0.0 0.00 0.41 0.41 96 1011.0
20260510032942 53 74 0.0 0.0 0.00 0.41 0.41 96 1010.9
20260510032439 53 74 1.0 1.0 0.00 0.41 0.41 96 1011.0
20260510031939 53 56 0.0 0.0 0.00 0.41 0.41 96 1011.1
20260510031435 53 56 0.0 0.0 0.00 0.41 0.41 96 1011.2
20260510030930 53 56 0.0 0.0 0.00 0.41 0.41 96 1011.2
20260510030426 53 56 0.0 0.0 0.00 0.41 0.41 96 1011.2
20260510025924 53 69 0.0 0.0 0.00 0.41 0.41 96 1011.2
20260510025421 53 44 0.0 0.0 0.00 0.41 0.41 96 1011.4
20260510024918 53 57 0.0 0.0 0.00 0.41 0.41 96 1011.3
20260510024415 53 57 0.0 0.0 0.00 0.41 0.41 96 1011.2
20260510023911 53 65 0.0 0.0 0.00 0.41 0.41 96 1011.3
20260510023407 53 98 0.0 0.0 0.00 0.41 0.41 96 1011.4
20260510022905 53 40 0.0 0.0 0.00 0.41 0.41 96 1011.3
20260510022403 53 40 0.0 0.0 0.00 0.41 0.41 96 1011.5
20260510021902 53 37 0.0 0.0 0.00 0.41 0.41 96 1011.4
20260510021401 53 40 0.0 0.0 0.00 0.41 0.41 96 1011.3
20260510020857 53 40 0.0 0.0 0.00 0.41 0.41 96 1011.2
20260510020352 53 39 0.0 0.0 0.00 0.41 0.41 96 1011.1
20260510015848 53 39 0.0 0.0 0.00 0.41 0.41 95 1011.1
20260510015344 53 40 0.0 0.0 0.00 0.41 0.41 95 1011.3
20260510014839 53 46 0.0 0.0 0.00 0.41 0.41 95 1011.2
20260510014337 54 5 0.0 0.0 0.00 0.41 0.41 95 1011.1
20260510013833 54 354 0.0 0.0 0.00 0.41 0.41 95 1011.2
20260510013329 54 352 0.0 0.0 0.00 0.41 0.41 95 1010.9
20260510012824 54 9 0.0 0.0 0.00 0.41 0.41 95 1011.0
20260510012323 54 48 0.0 0.0 0.00 0.41 0.41 95 1011.0
20260510011818 54 43 0.0 0.0 0.00 0.41 0.41 95 1011.0
20260510011314 54 57 0.0 0.0 0.00 0.41 0.41 95 1011.0
20260510010811 54 58 0.0 0.0 0.00 0.41 0.41 95 1010.9
20260510010308 54 53 0.0 0.0 0.00 0.41 0.41 95 1010.8
20260510005805 54 35 0.0 0.0 0.00 0.41 0.41 95 1010.9
20260510005300 55 224 0.0 0.0 0.00 0.41 0.41 95 1011.0
20260510004759 55 224 0.0 0.0 0.00 0.41 0.41 95 1010.6
20260510004256 54 224 0.0 0.0 0.00 0.41 0.41 95 1010.9
20260510003753 54 224 0.0 0.0 0.00 0.41 0.41 95 1010.9
20260510003250 54 224 0.0 0.0 0.00 0.41 0.41 95 1010.7
20260510002748 54 224 0.0 0.0 0.00 0.41 0.41 95 1010.6
20260510002246 54 224 0.0 0.0 0.00 0.41 0.41 95 1010.6
20260510001743 54 224 0.0 0.0 0.00 0.41 0.41 95 1010.7
20260510001241 54 224 0.0 0.0 0.00 0.41 0.41 95 1010.5
20260510000737 54 236 1.0 2.0 0.00 0.41 0.41 95 1010.6
20260510000234 54 302 1.0 1.0 0.00 0.41 0.41 95 1010.6
20260509235731 54 323 0.0 0.0 0.00 0.41 0.41 95 1010.7
20260509235227 54 308 0.0 0.0 0.00 0.41 0.41 95 1010.5
20260509234723 54 11 0.0 0.0 0.00 0.41 0.41 95 1010.3
20260509234221 54 11 0.0 0.0 0.00 0.41 0.41 95 1010.3
20260509233719 54 21 1.0 1.0 0.00 0.41 0.41 95 1009.9
20260509233216 54 16 2.0 2.0 0.07 0.41 0.41 94 1009.9
20260509232712 54 137 0.0 0.0 0.07 0.41 0.41 94 1010.3
20260509232209 54 166 1.0 1.0 0.00 0.40 0.40 94 1010.8
20260509231706 54 157 2.0 2.0 0.00 0.40 0.40 94 1010.9
20260509231203 54 148 1.0 1.0 0.05 0.40 0.40 94 1010.9
20260509230701 54 113 1.0 1.0 0.17 0.40 0.40 94 1010.9
20260509230157 55 101 0.0 0.0 0.24 0.39 0.39 94 1011.0
20260509225653 55 102 1.0 1.0 0.19 0.37 0.37 94 1011.1